RH
26 24 23 24 24 25 26 26 26 26 25 23 22 20 18 19 20 20 20 20 19 18 16 16 16 17 18 18 19 20 23 23 22 20 18 17 15 14 13 12 12 12 12 11 11 11 11 11 12 13 15 16 17 18 19 20 22 23 25 25 25 25 25 24 24 25 24 23 22 21 20 19 18 17 17 16 16 16 17 18 20 22 23 24 25 26 27 27 26 24 21 20 21 23 26 27 28 27 28 29 30 32 33
26 25 26 26 26 26 26 26 25 25 23 21 19 18 17 20 22 22 22 19 17 15 13 12 12 12 13 14 15 16 19 19 19 19 17 16 15 13 12 12 12 12 12 12 12 11 11 11 12 12 13 13 14 14 14 15 16 17 19 19 20 21 22 22 22 22 23 23 22 21 20 19 18 17 16 15 15 15 16 18 20 22 24 25 25 26 26 26 26 27 25 23 22 23 25 25 25 24 24 25 28 30 32
26 28 28 27 26 26 25 24 25 24 22 20 18 17 17 20 21 22 21 18 15 13 12 11 11 11 11 12 13 14 16 17 17 17 17 16 15 14 13 12 12 12 12 11 11 12 12 12 12 13 13 13 13 12 11 12 12 13 14 15 16 17 18 18 19 19 19 19 19 19 18 17 16 15 15 14 14 15 15 17 19 21 22 22 23 23 23 23 25 27 28 25 24 23 24 24 24 23 22 22 24 26 28
30 30 29 28 27 26 24 23 23 23 22 19 16 15 16 17 18 18 17 15 13 12 11 11 11 11 11 11 12 13 15 16 17 17 17 17 16 15 14 13 13 12 11 11 10 10 10 10 11 11 12 12 13 13 12 12 12 12 12 13 13 14 15 16 16 16 16 16 15 15 15 14 14 14 14 14 14 15 16 17 18 19 20 20 20 19 20 21 24 28 31 28 25 22 22 22 23 22 21 20 20 21 22
30 28 26 27 27 26 22 21 22 22 20 15 13 13 13 13 13 13 13 12 12 12 12 11 11 11 12 12 13 14 15 17 17 17 17 17 16 16 15 15 14 13 12 11 11 10 10 10 10 10 10 11 11 11 12 12 12 12 12 12 13 13 14 14 14 14 14 14 14 14 14 13 13 13 13 14 15 15 16 17 18 19 19 19 18 17 17 19 23 28 32 31 28 24 21 20 20 21 21 20 19 18 18
28 26 26 24 23 22 19 20 20 19 16 13 12 12 11 11 12 11 11 12 12 12 12 12 12 12 13 13 13 14 14 16 16 16 16 15 15 15 15 15 15 15 14 14 13 12 12 11 11 11 10 10 10 10 10 10 11 11 11 12 12 12 12 13 13 13 13 13 13 14 14 14 14 13 13 14 14 15 16 18 18 19 19 19 18 16 15 18 22 27 32 33 32 29 24 21 20 20 20 20 20 19 20
29 28 25 22 20 18 17 17 16 16 15 15 14 13 13 13 12 12 12 13 13 13 13 13 13 13 13 13 14 14 14 15 15 15 14 14 14 14 14 15 15 16 16 16 16 15 15 14 14 14 13 13 13 12 12 12 12 11 11 12 12 12 13 13 13 13 13 13 13 13 14 14 14 14 14 14 14 15 16 16 17 18 18 19 18 18 16 18 21 26 31 34 35 34 30 25 22 21 20 21 21 20 21
31 28 23 21 19 18 17 16 16 17 17 17 16 16 15 15 14 14 14 14 14 13 13 13 13 13 13 13 14 14 15 15 15 14 14 14 14 14 14 15 16 16 17 17 17 17 17 17 17 17 17 17 16 16 15 15 14 14 14 13 13 13 14 14 14 14 14 14 14 14 14 14 14 14 14 14 14 14 15 15 15 16 17 18 19 20 19 19 21 25 28 33 35 36 35 30 26 23 22 22 21 21 21
32 27 23 22 22 21 20 19 19 19 19 18 18 17 17 16 16 16 15 15 15 14 14 14 14 14 14 14 15 15 16 16 16 16 16 16 17 17 17 17 18 18 18 18 18 18 18 18 18 18 18 18 18 17 17 16 16 15 15 15 14 15 15 15 15 15 15 15 15 15 15 15 15 15 15 15 15 15 16 16 17 17 18 19 20 21 22 21 22 23 26 30 34 36 37 34 31 27 24 23 22 21 21
32 27 24 25 25 24 24 23 22 21 20 20 19 19 19 18 18 18 17 17 16 16 16 15 16 16 16 16 17 18 18 19 19 19 20 20 20 20 20 20 20 20 20 20 19 19 19 19 19 18 19 18 19 19 19 19 19 19 19 19 19 19 19 20 20 21 21 21 21 21 21 21 20 20 19 19 19 19 19 19 19 19 20 20 21 21 22 22 22 22 23 26 29 33 36 36 34 31 28 25 23 22 21
30 27 26 26 26 26 26 26 25 24 23 22 22 21 21 21 21 20 20 19 19 19 19 18 18 19 19 19 20 20 21 21 22 22 22 22 22 22 22 22 22 22 22 21 21 21 21 21 21 21 21 21 21 22 22 23 24 24 25 25 25 26 26 26 27 27 27 27 27 26 26 25 25 24 23 22 22 21 21 21 20 20 20 20 21 21 21 21 21 21 22 23 25 29 33 36 36 35 31 28 26 24 23
28 27 28 27 27 28 27 27 27 27 26 26 25 25 24 24 24 24 23 23 23 22 22 22 22 22 22 22 22 22 22 22 22 22 22 22 22 22 22 22 22 22 22 22 22 22 22 23 23 23 23 23 24 24 25 25 26 27 27 28 28 29 29 29 30 29 29 29 29 28 27 27 26 25 24 23 22 21 21 20 20 20 20 20 20 19 19 20 20 20 20 21 23 25 27 32 35 36 34 32 29 27 25
27 27 28 28 28 28 28 28 28 29 28 28 28 28 28 27 27 27 26 26 26 26 25 25 24 24 24 23 23 23 23 22 22 22 22 22 22 23 23 23 23 23 24 24 24 24 24 24 24 25 25 25 25 25 26 26 26 26 27 28 28 29 29 29 29 28 28 28 27 27 27 26 26 25 24 23 22 21 20 20 19 19 19 18 18 18 18 18 18 18 19 19 20 21 23 26 30 33 34 34 32 30 28
26 27 27 27 28 28 29 29 30 30 30 30 30 30 29 29 29 29 28 28 27 27 27 26 25 25 25 24 24 23 23 22 22 23 23 23 23 24 24 25 25 26 26 26 26 26 26 26 27 27 27 27 27 27 27 27 26 26 26 26 26 26 26 26 26 25 25 24 24 23 23 23 23 23 23 23 22 22 21 20 19 18 18 17 17 17 17 16 16 17 17 17 18 19 20 22 24 28 31 33 33 32 31
27 27 27 28 29 30 30 31 31 31 31 31 31 30 31 30 30 30 29 29 29 28 28 27 27 26 26 25 25 24 24 24 24 24 25 25 26 26 27 27 27 28 28 28 28 28 28 29 29 29 29 29 28 28 28 27 27 26 25 25 24 24 23 23 22 22 21 20 20 20 20 20 20 21 21 22 22 22 22 20 19 18 17 17 16 16 16 16 16 16 16 16 17 17 18 19 20 22 25 28 30 31 31
28 29 29 30 30 31 31 32 32 32 32 32 32 32 32 32 31 31 31 30 30 30 29 29 28 28 28 28 27 27 26 27 27 27 28 28 29 29 29 29 29 29 29 29 30 30 30 30 30 30 29 29 29 28 28 27 27 26 25 24 23 22 22 21 20 20 20 19 18 18 17 17 17 18 18 19 20 21 21 21 21 20 19 17 17 16 16 16 15 15 15 15 16 16 16 17 18 19 20 22 25 27 29
30 31 31 32 32 32 32 32 33 33 33 33 34 33 33 33 33 32 32 32 32 31 31 31 31 31 30 30 30 30 30 30 30 31 31 31 31 31 31 31 31 31 31 31 31 31 32 32 31 31 30 30 29 28 27 26 25 24 24 23 22 22 21 21 21 20 20 20 19 19 18 17 17 17 17 17 18 18 19 20 20 20 20 19 18 17 16 16 16 15 15 15 15 15 16 16 16 17 18 19 21 23 25
32 33 33 33 33 33 32 32 33 33 33 34 34 34 34 34 34 34 34 34 33 33 33 33 33 33 33 33 33 33 33 33 33 33 33 33 32 32 33 33 33 33 33 33 33 33 33 32 32 31 30 29 28 27 27 25 24 23 23 22 22 22 22 22 22 22 22 22 21 21 21 20 19 19 18 18 18 18 18 18 19 19 19 19 19 18 17 16 15 15 14 14 14 14 15 15 15 16 16 17 18 20 21
34 34 34 34 33 33 33 32 32 33 33 33 34 34 34 35 35 35 35 35 35 35 35 35 35 35 35 35 35 35 35 35 35 34 34 34 34 35 35 35 36 35 35 34 34 34 33 32 32 30 29 28 27 26 26 25 24 24 23 23 23 23 23 23 24 24 24 24 24 24 24 24 23 23 22 22 21 21 20 20 19 19 19 19 19 19 19 18 17 15 14 13 13 13 13 13 14 14 16 16 16 17 17
35 35 34 34 34 33 33 33 33 33 33 33 34 34 34 35 35 35 35 35 35 36 36 36 36 36 36 36 36 36 36 36 36 36 36 36 37 38 39 38 37 37 36 35 35 34 33 32 31 29 28 27 27 26 26 26 25 25 25 25 25 25 25 26 26 26 26 27 27 27 27 27 27 27 27 26 26 25 25 24 23 23 22 22 21 21 21 20 20 19 17 16 14 13 12 12 12 13 16 16 17 18 17
34 33 33 34 34 34 34 34 34 34 34 34 34 35 36 36 36 36 35 36 36 36 36 37 37 37 37 37 37 37 37 37 38 38 39 39 40 40 40 40 39 38 36 35 34 33 32 31 29 29 28 27 27 27 27 27 27 27 27 27 28 28 28 28 28 29 29 29 29 29 30 30 30 30 30 29 29 29 29 28 28 27 27 26 26 25 25 24 24 24 23 21 19 17 15 14 14 14 15 17 19 20 19
32 32 33 34 35 36 36 35 35 35 35 35 36 36 36 37 36 36 37 37 37 38 38 38 38 38 38 38 38 39 39 40 40 40 40 40 40 40 40 39 39 37 36 35 33 32 31 30 29 29 28 28 28 28 27 27 27 28 28 29 29 29 29 30 30 30 31 31 31 31 32 32 32 32 32 31 31 31 31 31 31 31 31 30 30 30 29 29 29 28 28 27 26 24 23 20 19 18 17 18 18 19 21
34 34 34 35 36 36 35 35 35 35 35 35 35 35 36 36 37 37 38 38 38 39 39 39 40 40 40 40 40 40 40 40 41 41 40 40 39 38 38 37 36 35 34 33 32 31 30 30 29 29 29 29 29 28 28 28 28 28 29 29 30 30 30 30 31 31 31 32 32 32 33 33 33 33 33 33 33 33 33 33 33 34 33 34 33 33 33 33 33 33 33 32 32 31 30 28 26 24 22 21 20 20 20
37 37 36 36 36 35 35 34 34 34 34 34 34 34 35 35 36 36 37 37 37 38 38 39 39 39 39 39 39 39 39 39 38 38 38 37 36 35 35 34 33 32 32 31 30 30 30 30 30 29 29 29 29 29 29 29 29 29 30 30 30 31 31 31 31 32 32 33 33 33 34 34 34 34 34 34 35 35 35 35 36 36 36 36 36 36 36 36 35 35 35 35 35 35 34 33 32 31 28 26 25 23 22
41 41 39 38 38 38 37 37 37 37 36 36 35 35 35 35 35 35 36 36 36 36 37 37 36 36 36 36 36 36 35 35 35 34 34 33 33 32 32 31 31 30 30 30 30 30 30 30 29 30 30 29 30 30 30 30 30 31 31 32 32 33 33 33 33 34 34 34 35 35 35 36 36 36 36 37 37 37 37 38 38 38 38 39 39 38 38 38 38 38 37 37 36 36 36 35 35 34 33 31 29 27 24
43 43 42 42 42 42 42 42 42 41 41 40 39 38 38 37 37 37 37 37 36 36 35 34 34 34 33 33 33 32 32 32 31 31 31 31 30 30 30 30 29 29 29 29 29 29 30 30 30 30 30 30 30 31 31 31 32 33 33 34 35 35 36 36 36 36 36 36 37 37 37 37 37 38 39 40 40 40 39 39 39 39 40 40 40 40 40 40 40 40 39 38 38 37 37 36 35 35 34 33 31 30 27
43 44 45 45 46 46 45 45 45 45 45 43 43 42 42 41 41 40 39 38 37 36 35 34 33 32 31 31 30 30 30 30 30 29 29 29 29 29 29 29 29 29 29 29 30 30 30 31 31 31 31 32 32 32 33 33 34 34 35 36 37 38 38 38 38 38 38 37 37 37 37 37 37 38 39 39 39 39 39 38 38 38 38 38 38 39 39 39 39 39 39 39 39 39 38 37 37 36 35 34 33 32 30
45 46 47 48 47 47 47 47 47 47 46 45 44 44 43 43 42 41 40 39 38 36 35 34 33 32 31 30 30 29 29 29 28 29 28 28 28 28 28 28 28 28 29 30 30 31 31 32 32 32 32 33 33 34 34 34 35 35 36 37 37 38 38 38 38 38 37 37 36 36 35 35 35 35 35 35 36 36 36 36 36 36 36 36 36 36 37 37 38 38 38 38 38 38 38 38 37 37 36 36 35 34 33
47 48 49 49 48 48 48 47 47 46 45 44 44 43 42 42 41 39 38 37 36 34 33 32 31 31 30 29 29 28 28 27 27 26 25 24 24 24 24 25 25 26 27 28 30 30 31 32 32 33 34 34 34 34 35 35 35 36 36 37 37 37 37 37 37 36 35 35 34 33 32 32 32 32 32 31 32 33 33 33 33 33 34 35 36 37 37 38 38 38 38 37 37 37 37 37 37 37 37 36 36 35 34
49 50 49 49 49 48 47 46 46 45 44 43 42 41 41 40 38 37 35 33 32 31 30 29 28 28 28 28 27 26 24 22 21 19 19 18 19 20 21 22 24 25 27 28 29 30 32 32 33 34 35 35 35 35 35 36 36 36 36 36 36 36 35 35 35 34 33 32 31 31 30 30 30 30 30 29 29 30 30 31 31 32 32 33 34 35 35 37 38 40 40 39 38 37 36 36 36 36 36 36 36 36 36
50 50 50 49 48 47 46 45 44 43 42 41 40 39 38 37 35 33 32 30 28 27 27 26 25 25 25 25 24 22 20 18 17 17 17 17 18 19 20 22 25 27 29 30 31 32 33 34 35 35 36 36 36 36 35 35 35 35 35 35 35 34 34 34 33 33 32 31 31 30 29 29 29 29 29 29 29 29 29 30 30 30 31 31 31 31 32 33 35 36 38 39 40 40 39 38 37 35 35 35 36 36 36
48 48 48 48 46 45 44 43 42 41 40 38 37 36 34 32 32 31 29 27 26 25 24 24 23 23 22 21 20 20 19 19 19 19 19 20 20 21 23 25 27 29 31 32 33 34 34 35 36 36 36 36 36 36 35 35 35 35 35 34 34 34 33 33 33 32 32 31 31 30 30 30 30 30 30 30 30 30 29 29 29 30 30 30 30 30 30 31 32 33 34 35 37 38 39 40 40 39 38 38 37 36 36
46 46 46 45 44 42 41 40 39 37 36 34 33 31 30 29 29 29 27 26 25 24 24 23 22 21 20 20 20 20 21 22 23 23 23 24 25 26 26 28 29 30 32 33 34 35 35 36 37 37 37 36 36 35 35 34 34 34 34 34 34 34 34 33 33 33 33 32 32 32 31 31 31 31 31 31 31 30 30 29 29 29 29 29 29 29 29 30 31 31 32 32 32 34 36 38 39 41 41 40 40 39 38
45 44 43 42 40 39 37 36 35 34 31 29 28 28 28 28 28 28 27 26 26 26 26 24 23 21 21 23 24 25 26 27 27 28 28 29 30 30 31 32 32 32 33 33 34 35 36 36 37 36 36 35 35 34 34 33 33 33 34 34 34 34 34 34 33 33 33 33 33 32 32 32 32 31 32 32 31 31 30 29 29 28 28 28 28 28 28 28 29 29 30 30 31 33 34 36 37 38 39 40 40 40 40
42 41 40 38 36 35 35 33 31 29 27 26 27 27 27 28 28 28 28 28 29 29 29 27 26 25 25 28 29 30 30 30 31 32 32 33 33 34 35 35 35 35 36 36 36 36 36 35 35 35 34 34 33 33 33 33 33 33 33 33 33 33 33 33 33 33 32 32 32 32 32 32 31 32 31 31 31 31 30 29 29 28 28 28 28 28 28 27 28 28 28 30 30 31 32 34 35 36 36 38 39 39 39
39 37 35 33 32 32 32 30 28 26 25 26 28 29 29 29 30 30 31 31 32 32 32 31 29 29 30 32 32 32 31 31 32 33 34 35 35 36 36 36 37 37 37 37 36 36 35 35 35 35 35 34 34 33 33 32 32 32 32 32 32 32 32 31 31 31 31 31 31 31 31 31 30 30 30 30 30 29 29 29 28 28 28 28 28 28 28 28 28 28 28 28 29 30 31 32 32 33 33 35 36 38 38
35 34 33 31 30 29 28 26 25 24 25 28 29 30 31 32 32 33 33 33 33 34 34 33 33 33 33 34 34 33 31 31 32 33 34 34 35 36 36 37 37 37 37 36 36 35 35 35 35 34 34 33 32 31 31 30 30 30 30 29 29 30 29 29 29 29 29 29 29 29 29 28 28 28 27 27 27 27 27 27 27 27 27 27 27 28 28 29 28 28 28 28 28 29 30 31 31 31 31 32 34 35 35
33 32 32 30 28 25 22 22 22 23 26 29 31 32 33 34 34 33 33 33 33 33 33 33 34 34 35 34 33 32 31 31 31 32 33 34 34 35 35 36 36 35 35 34 34 33 33 32 32 32 31 30 29 28 28 27 27 27 27 27 27 27 27 27 27 27 27 27 27 26 26 26 26 26 26 26 25 25 25 25 25 26 26 26 27 28 28 29 29 29 29 29 28 28 29 30 30 30 29 30 31 32 32
32 31 30 29 26 23 20 20 21 23 26 30 32 33 34 34 34 33 33 32 32 32 32 33 34 34 34 32 31 30 29 30 31 32 32 33 33 33 34 34 34 33 33 31 30 29 29 29 29 29 28 28 27 26 26 25 25 25 25 25 25 25 25 25 25 25 25 25 24 24 24 24 24 25 25 25 25 26 26 25 25 25 26 26 27 28 29 29 30 30 30 30 30 30 29 29 28 28 28 28 29 29 30
30 29 28 27 24 21 21 21 22 24 26 30 32 34 34 34 34 33 32 31 30 30 31 33 33 33 31 30 28 28 28 29 30 31 32 32 32 32 32 32 31 29 28 26 25 25 25 26 27 27 26 26 26 25 25 24 24 23 23 23 23 23 23 23 23 23 23 23 23 23 23 23 24 24 24 25 26 26 27 26 25 25 25 26 26 26 27 28 29 29 30 30 31 31 31 30 29 29 28 28 28 28 28
29 27 26 24 22 22 23 23 24 25 26 29 32 34 34 34 33 32 31 30 30 30 31 32 32 31 29 28 27 28 28 29 30 30 31 30 30 30 29 28 26 24 23 22 23 23 24 25 25 26 25 25 25 24 23 22 22 21 21 21 21 22 22 23 23 23 24 24 24 25 25 25 25 25 24 24 25 26 27 26 26 25 25 24 25 25 26 28 29 30 30 31 31 32 32 32 31 31 30 30 30 30 30
25 24 22 22 22 23 24 24 25 26 27 29 31 33 34 33 33 32 31 31 31 31 31 31 30 29 28 27 27 27 27 28 29 29 29 28 27 26 24 22 21 20 20 21 22 23 24 24 24 24 23 23 22 21 20 20 20 20 20 20 21 21 22 23 25 26 26 28 30 30 30 30 29 28 26 25 25 25 25 26 26 26 26 26 27 29 32 35 36 36 34 33 32 32 32 32 33 34 34 35 36 35 34
22 22 22 23 24 24 25 26 26 27 28 29 30 31 33 33 32 32 31 31 32 32 31 30 29 28 27 27 26 27 27 28 27 27 26 24 23 21 19 19 19 19 20 21 21 21 21 21 20 20 19 19 18 18 18 18 19 19 19 20 20 21 23 25 27 28 29 32 34 34 34 33 32 30 28 26 24 24 25 26 26 27 27 28 30 33 37 39 41 40 38 38 36 33 32 33 33 33 35 37 38 38 38
22 23 23 24 24 25 26 27 27 28 29 29 30 31 32 32 32 32 32 32 32 32 30 29 28 27 26 26 25 26 26 26 25 23 21 20 18 17 17 18 19 19 19 19 18 18 17 17 17 16 16 16 16 17 17 17 17 18 18 19 20 21 23 26 28 29 30 31 32 33 33 32 30 28 25 24 24 24 26 26 27 27 26 28 30 32 34 36 38 39 39 39 37 35 36 38 35 31 32 35 38 38 37
23 23 24 24 25 26 27 28 28 29 30 30 31 32 33 33 32 32 32 32 32 30 28 27 26 25 24 24 24 24 24 23 21 19 17 17 17 17 18 18 18 18 17 16 16 15 15 15 15 14 15 15 15 16 16 16 17 17 18 18 19 20 22 25 27 28 29 29 29 29 29 29 28 27 26 25 25 25 26 26 26 26 26 27 28 29 30 32 33 35 36 36 35 35 36 38 38 36 34 34 33 32 31
23 24 24 25 26 26 27 28 29 30 31 32 32 33 34 34 33 33 32 31 30 28 25 23 22 22 21 21 21 21 20 19 17 17 16 17 18 18 18 17 17 16 16 15 15 15 14 14 14 14 14 14 15 15 15 16 16 16 17 17 18 19 20 22 24 25 26 26 26 27 27 27 27 26 26 26 25 25 24 24 24 24 24 24 25 27 29 31 33 34 34 34 34 33 33 36 38 39 41 39 35 30 28
24 24 24 25 26 27 28 29 30 31 32 33 34 34 35 34 33 32 30 28 26 23 21 20 19 19 18 18 18 18 17 16 16 17 17 18 18 17 17 16 16 16 15 15 15 15 14 14 13 13 13 14 14 14 15 15 15 16 16 16 17 17 18 19 20 22 23 24 24 24 24 24 24 23 23 23 23 22 22 22 22 21 22 22 24 25 27 30 31 32 32 33 33 33 33 35 37 38 39 39 36 33 33
24 24 25 26 27 28 29 30 32 33 34 34 34 34 34 33 31 29 26 24 22 20 18 17 17 16 16 16 16 16 16 16 17 17 17 17 17 17 17 16 16 16 15 15 15 14 14 13 13 13 14 14 14 14 14 15 15 15 15 16 16 16 17 18 18 19 20 20 21 20 20 20 20 20 20 20 20 20 19 19 19 19 19 20 21 22 24 26 27 29 29 30 31 32 33 34 35 35 33 34 33 31 31
24 25 26 27 28 30 31 32 34 34 35 34 34 33 31 29 26 24 22 20 18 17 16 16 16 16 16 16 16 16 16 17 17 17 17 17 17 17 16 16 16 15 15 15 14 14 14 14 14 14 14 14 14 14 14 14 15 15 15 15 15 16 16 16 16 17 17 17 17 17 16 16 17 17 17 17 17 17 16 16 16 16 17 17 18 19 20 21 22 24 25 26 27 28 29 29 29 29 29 29 28 27 26
25 26 27 29 31 32 34 35 35 35 34 32 31 29 27 24 22 20 19 17 16 15 15 15 16 16 17 17 17 16 16 17 17 17 17 17 17 16 16 16 16 16 16 15 14 14 14 14 14 15 15 15 15 14 14 14 14 14 15 15 15 15 15 15 15 15 14 14 14 14 14 14 15 15 15 15 15 14 14 15 15 15 16 16 16 17 17 17 18 18 19 20 21 22 23 23 24 24 25 25 25 25 25
26 27 29 31 33 34 35 35 34 33 31 29 27 25 23 20 19 17 16 16 16 15 15 16 16 17 17 17 17 17 16 17 17 17 17 17 17 17 16 16 16 16 16 15 15 14 14 15 15 15 15 15 14 14 14 14 15 15 15 15 15 15 15 15 14 14 14 14 14 14 14 14 15 15 15 14 14 14 14 15 15 15 15 15 15 16 15 16 16 15 16 16 16 17 17 17 18 19 20 20 21 22 24
26 28 30 32 33 34 34 33 31 29 26 24 23 21 19 18 17 16 15 16 16 15 16 16 17 17 17 17 17 16 16 17 17 18 17 17 17 17 17 17 17 17 16 16 15 15 15 15 15 16 15 15 15 15 15 16 16 16 16 16 16 16 15 15 15 15 15 15 15 16 15 15 15 15 15 15 15 15 15 15 15 15 15 15 15 15 15 15 15 15 15 15 15 14 15 14 15 15 15 16 17 19 21
26 28 30 31 32 32 31 30 28 26 23 21 20 19 18 17 16 16 16 16 16 16 16 16 17 17 17 16 16 16 16 16 17 18 18 17 17 17 18 18 18 18 18 17 16 16 15 15 16 16 15 16 16 16 16 16 16 16 16 16 16 16 16 17 17 17 17 17 17 17 17 17 16 16 16 16 16 16 16 15 15 15 15 15 15 15 15 15 15 15 15 15 15 15 15 15 15 15 14 14 15 15 16
25 27 29 29 30 29 29 27 25 23 21 20 19 18 17 16 16 16 16 16 16 16 16 16 16 16 17 16 16 17 16 17 17 18 19 18 18 19 20 19 19 19 19 18 18 17 16 16 17 17 16 16 17 16 16 16 17 17 17 17 17 17 18 18 18 18 18 18 18 17 17 17 17 17 17 16 16 16 16 15 15 15 15 15 15 15 16 16 16 16 16 16 16 15 15 15 15 15 15 14 14 14 14
25 27 28 29 28 28 27 26 24 23 21 20 19 18 18 17 16 16 16 16 16 16 16 16 15 16 16 16 17 17 17 17 18 18 19 19 19 20 21 21 20 20 19 18 18 18 17 17 17 17 17 17 16 16 17 17 17 17 17 17 17 17 18 18 18 17 17 17 16 16 16 16 15 16 16 16 16 16 15 15 16 16 16 16 16 16 16 16 16 16 16 16 15 15 15 14 14 14 14 14 14 14 14
27 28 29 29 28 27 26 25 24 22 21 20 19 19 18 17 17 16 16 15 15 15 15 15 15 15 15 16 17 17 17 17 18 19 20 20 20 21 22 22 22 22 21 20 19 19 19 19 18 18 16 16 16 17 17 17 17 17 17 17 17 17 17 17 17 17 17 16 16 15 15 15 15 15 15 16 16 16 16 16 16 16 16 16 16 16 16 16 16 16 16 15 15 14 14 14 14 15 14 14 14 15 16
29 29 29 28 28 27 26 25 24 22 21 20 19 19 18 17 16 16 15 15 14 14 14 14 14 15 15 16 17 18 18 18 18 19 20 21 21 21 21 22 23 23 23 23 22 21 20 20 19 18 16 16 16 17 17 16 16 16 17 17 17 17 16 16 16 16 16 16 15 15 15 15 15 16 16 16 16 16 16 16 16 16 16 16 16 16 16 16 15 15 15 14 14 14 14 15 15 15 15 15 16 17 18
30 30 30 28 27 26 26 25 24 23 21 20 19 19 18 17 16 15 14 14 14 14 14 14 15 15 16 16 18 18 19 19 19 19 21 21 22 21 20 21 21 22 23 23 23 22 22 21 20 19 17 17 16 16 16 16 16 16 16 16 16 16 16 16 16 16 16 16 15 15 15 16 16 16 16 16 16 16 16 16 16 15 15 15 15 15 15 15 14 14 13 13 14 14 15 16 17 17 17 18 19 20 20
30 30 29 28 27 26 25 24 24 22 21 20 19 18 17 16 15 14 14 14 14 14 14 15 15 16 16 17 18 19 20 20 20 20 21 22 22 21 20 21 21 22 23 23 23 22 23 22 21 20 19 18 17 15 16 16 16 16 16 16 16 16 16 16 16 16 16 16 16 16 16 16 16 16 16 16 16 16 16 15 15 15 15 15 15 14 14 13 13 13 13 13 14 16 18 18 19 20 21 21 22 24 26
30 29 28 28 27 26 25 24 23 22 21 19 18 17 16 15 15 14 14 14 14 14 15 15 16 16 16 18 19 20 21 21 21 21 22 22 22 21 21 22 22 22 23 23 23 22 22 22 22 21 20 19 18 16 15 15 16 16 16 16 16 16 16 16 16 16 16 16 16 16 16 16 16 16 16 16 16 16 16 15 15 15 14 14 14 13 13 13 13 13 14 15 17 20 23 24 25 24 23 24 26 30 34
29 28 28 27 26 26 25 25 23 22 20 19 18 17 16 15 14 14 14 15 15 15 16 16 16 17 17 18 20 21 22 22 22 22 22 23 23 22 21 22 23 23 23 23 23 23 23 22 22 21 21 20 19 18 17 16 16 16 16 16 16 16 16 17 16 16 16 16 16 17 16 16 16 16 16 16 16 16 15 15 14 14 13 13 13 13 13 13 14 15 16 19 23 28 31 34 33 31 27 29 32 36 39